Terug naar catalogus

STARLINK-3342

ActiefCommunicatieVLEO
NORAD 50816·PAYLOAD·🇺🇸 United States

Gelanceerd Jan 6, 2022 vanaf Cape Canaveral Space Force Station

Loading…

Volgende Passages (komende 24 uur)

TLE

VersSource: CelesTrak SupGP

Epoch: Sep 14, 2026, 21:42 UTC

1 50816C 22001P   26257.90465278  .00017392  00000+0  77730-3 0  2573
2 50816  53.2164  26.9142 0002255  76.2266 204.3093 15.20801843    14

Volg STARLINK-3342 in realtime met AllMySat

Download on the App Store